カタログに戻る

STARLINK-1465

運用中通信VLEO
NORAD 45731·PAYLOAD·🇺🇸 United States

打ち上げ Jun 13, 2020 から Cape Canaveral Space Force Station

Loading…

次のパス (今後24時間)

TLE

最新Source: CelesTrak SupGP

元期: Sep 14, 2026, 21:14 UTC

1 45731C 20038B   26257.88520833  .00098282  00000+0  45583-3 0  2575
2 45731  53.0401  12.5135 0002593 344.8346  44.6377 15.82669864    10

AllMySatでSTARLINK-1465をリアルタイム追跡

Download on the App Store